This is the latest recevied weather packets stored in our database for station/object N0TKN. If no packets are shown the sender has not sent any weather packets the latest 1 day(s).
| Time | Temp. | Humidity | Pressure | Rain* | Wind** | Luminosity | Snow |
|---|---|---|---|---|---|---|---|
| 1836274391 | 21.11° C | 90% | 1016 hPa | 0 mm | 0 m/s | 0 W/m² | - |
| 1836274241 | 20.56° C | 91% | 1015.8 hPa | 0 mm | 0 m/s | 0 W/m² | - |
| 1778047517 | 7.22° C | 99% | 1013.1 hPa | 0.76 mm | 0 m/s | 0 W/m² | - |
| 1778046917 | 7.22° C | 99% | 1013.1 hPa | 0.76 mm | 0.45 m/s, 288° | 0 W/m² | - |
| 1778046317 | 7.22° C | 99% | 1013.2 hPa | 0.76 mm | 0.45 m/s, 259° | 0 W/m² | - |
| 1778045717 | 7.22° C | 99% | 1013 hPa | 0.76 mm | 0 m/s | 0 W/m² | - |
| 1778045117 | 7.22° C | 99% | 1012.8 hPa | 0 mm | 0 m/s | 0 W/m² | - |
| 1778044518 | 7.22° C | 99% | 1012.6 hPa | 0 mm | 0 m/s | 0 W/m² | - |
| 1778043918 | 7.22° C | 99% | 1012.7 hPa | 0 mm | 0 m/s | 0 W/m² | - |
| 1778043318 | 7.22° C | 99% | 1012.6 hPa | 0 mm | 0 m/s | 0 W/m² | - |
| 1778042718 | 7.22° C | 99% | 1012.6 hPa | 0 mm | 0 m/s | 0 W/m² | - |
| 1778042115 | 7.22° C | 99% | 1012.6 hPa | 0 mm | 0 m/s | 0 W/m² | - |
| 1778041515 | 7.22° C | 99% | 1012.9 hPa | 0 mm | 0.89 m/s, 183° | 0 W/m² | - |
| 1778040916 | 6.67° C | 99% | 1012.8 hPa | 0 mm | 0 m/s | 0 W/m² | - |
| 1778040315 | 7.22° C | 99% | 1012.7 hPa | 0 mm | 0 m/s | 0 W/m² | - |
| 1778039716 | 7.22° C | 99% | 1012.6 hPa | 0.25 mm | 0 m/s | 0 W/m² | - |
| 1778039116 | 7.22° C | 99% | 1012.6 hPa | 0.51 mm | 0 m/s | 0 W/m² | - |
| 1778038516 | 7.22° C | 99% | 1013.1 hPa | 0.76 mm | 0.45 m/s, 210° | 0 W/m² | - |
| 1778037916 | 7.22° C | 99% | 1012.7 hPa | 1.02 mm | 0.45 m/s, 202° | 0 W/m² | - |
| 1778037316 | 6.67° C | 99% | 1012.6 hPa | 1.27 mm | 0 m/s | 0 W/m² | - |
| 1778036717 | 7.22° C | 99% | 1012.7 hPa | 1.27 mm | 0 m/s | 0 W/m² | - |
| 1778036116 | 7.22° C | 99% | 1012.7 hPa | 1.27 mm | 0 m/s | 0 W/m² | - |
| 1778035518 | 6.67° C | 99% | 1012.8 hPa | 1.02 mm | 0 m/s | 0 W/m² | - |
| 1778034922 | 6.67° C | 99% | 1012.6 hPa | 1.02 mm | 0 m/s | 0 W/m² | - |
| 1778034318 | 6.67° C | 99% | 1012.5 hPa | 1.02 mm | 0.89 m/s, 177° | 0 W/m² | - |
* Rain latest hour (hover to see other rain measurements)
** Current wind speed in m/s (hover to see current wind gust speed)